This is the latest recevied weather packets stored in our database for station/object K9APR. If no packets are shown the sender has not sent any weather packets the latest 10 day(s).
| Time | Temp. | Humidity | Pressure | Rain* | Wind** | Luminosity | Snow |
|---|---|---|---|---|---|---|---|
| 1777735744 | 8.33° C | 55% | 1020.3 hPa | 0 mm | - | - | - |
| 1777735203 | 7.78° C | 52% | 1020.3 hPa | 0 mm | - | - | - |
| 1777734662 | 7.78° C | 54% | 1020.2 hPa | 0 mm | - | - | - |
| 1777734124 | 7.22° C | 55% | 1020.3 hPa | 0 mm | - | - | - |
| 1777733584 | 7.22° C | 57% | 1020.2 hPa | 0 mm | - | - | - |
| 1777733044 | 7.22° C | 56% | 1020.1 hPa | 0 mm | - | - | - |
| 1777732503 | 7.22° C | 56% | 1020.1 hPa | 0 mm | - | - | - |
| 1777731963 | 6.67° C | 60% | 1020.1 hPa | 0 mm | - | - | - |
| 1777731422 | 6.67° C | 62% | 1020.1 hPa | 0 mm | - | - | - |
| 1777730884 | 6.11° C | 61% | 1020 hPa | 0 mm | - | - | - |
| 1777730344 | 6.11° C | 63% | 1020.1 hPa | 0 mm | - | - | - |
| 1777729802 | 6.11° C | 67% | 1020.1 hPa | 0 mm | - | - | - |
| 1777729263 | 5.56° C | 69% | 1020.1 hPa | 0 mm | - | - | - |
| 1777728723 | 4.44° C | 68% | 1020.2 hPa | 0 mm | - | - | - |
| 1777728182 | 4.44° C | 68% | 1020.3 hPa | 0 mm | - | - | - |
| 1777727643 | 3.89° C | 71% | 1020.2 hPa | 0 mm | - | - | - |
| 1777727102 | 3.89° C | 74% | 1020 hPa | 0 mm | - | - | - |
| 1777726562 | 3.33° C | 73% | 1020 hPa | 0 mm | - | - | - |
| 1777726023 | 3.33° C | 73% | 1019.8 hPa | 0 mm | - | - | - |
| 1777725483 | 2.78° C | 75% | 1019.7 hPa | 0 mm | - | - | - |
| 1777724942 | 2.78° C | 78% | 1019.6 hPa | 0 mm | - | - | - |
| 1777724402 | 2.22° C | 80% | 1019.4 hPa | 0 mm | - | - | - |
| 1777723863 | 1.67° C | 82% | 1019.4 hPa | 0 mm | - | - | - |
| 1777723323 | 1.11° C | 84% | 1019.4 hPa | 0 mm | - | - | - |
| 1777722782 | 1.11° C | 84% | 1019.3 hPa | 0 mm | - | - | - |
* Rain latest hour (hover to see other rain measurements)
** Current wind speed in m/s (hover to see current wind gust speed)